Change the Weather History Date:

Tuesday, August 27, 2013

  Actual Average Record
Temperature  
Mean Temperature 72 °F 68 °F  
Max Temperature 81 °F 80 °F 97 °F (1972)
Min Temperature 62 °F 57 °F 47 °F (1964)
Degree Days  
Heating Degree Days 0 0  
Month to date heating degree days 3 0  
Since 1 June heating degree days 54 108  
Since 1 July heating degree days 5 17  
Cooling Degree Days 7 4  
Month to date cooling degree days 170 138  
Year to date cooling degree days 420 349  
Since 1 June cooling degree days 405 332  
Growing Degree Days 22 (Base 50)    
Moisture  
Dew Point 59 °F    
Average Humidity 69    
Maximum Humidity 93    
Minimum Humidity 45    
Precipitation  
Precipitation T in 0.03 in 0.42 in (1975)
Month to date precipitation 0.36 0.54  
Year to date precipitation 14.86 20.31  
Snow  
Snow 0.00 in - - ()
Month to date snowfall 0.0  
Since 1 June snowfall 0.0  
Snow Depth 0.00 in    
Sea Level Pressure  
Sea Level Pressure 29.87 in    
Wind  
Wind Speed 5 mph (NW)    
Max Wind Speed 10 mph    
Max Gust Speed 14 mph    
Visibility 10 miles    
Events Rain    
T = Trace of Precipitation, MM = Missing Value Source: NWS Daily Summary

Daily Weather History Graph

Daily Weather History Graph

Search for Another Location

Airport or City:

Trip Planner

Search our weather history database for the weather conditions in past years. The results will help you decide how hot, cold, wet, or windy it might be!

Date:

Astronomy

Aug. 27, 2013 Rise Set
Actual Time 6:25 AM PDT 7:56 PM PDT
Civil Twilight 5:54 AM PDT 8:27 PM PDT
Nautical Twilight 5:17 AM PDT 9:05 PM PDT
Astronomical Twilight 4:36 AM PDT 9:45 PM PDT
Moon 11:31 PM PDT (8/27) 1:51 PM PDT (8/27)
Length of Visible Light 14h 32m
Length of Day
13h 30m
Waning Gibbous, 56% of the Moon is Illuminated
Aug 27
Waning Gibbous
Aug 28
Last Quarter
Sep 5
New
Sep 12
First Quarter
Sep 19
Full

Hourly Weather History & Observations

Time (PDT) Temp. Heat Index Dew Point Humidity Pressure Visibility Wind Dir Wind Speed Gust Speed Precip Events Conditions
12:53 AM 63.0 °F - 60.1 °F 90% 29.97 in 5.0 mi Calm Calm - 0.02 in Rain Light Rain
1:53 AM 63.0 °F - 60.1 °F 90% 29.96 in 10.0 mi ESE 5.8 mph - 0.00 in   Overcast
2:53 AM 64.0 °F - 60.1 °F 87% 29.95 in 10.0 mi ENE 3.5 mph - N/A   Overcast
3:53 AM 63.0 °F - 60.1 °F 90% 29.94 in 10.0 mi ESE 3.5 mph - N/A   Overcast
4:53 AM 63.0 °F - 59.0 °F 87% 29.94 in 10.0 mi ESE 3.5 mph - N/A   Overcast
5:53 AM 64.0 °F - 59.0 °F 84% 29.93 in 10.0 mi ENE 3.5 mph - N/A   Mostly Cloudy
6:53 AM 63.0 °F - 59.0 °F 87% 29.94 in 10.0 mi Calm Calm - N/A   Mostly Cloudy
7:53 AM 64.0 °F - 57.0 °F 78% 29.94 in 10.0 mi Calm Calm - N/A   Overcast
8:53 AM 66.9 °F - 57.0 °F 70% 29.93 in 10.0 mi East 6.9 mph - N/A   Mostly Cloudy
9:53 AM 69.1 °F - 55.9 °F 63% 29.92 in 10.0 mi Calm Calm - N/A   Mostly Cloudy
10:53 AM 70.0 °F - 57.0 °F 63% 29.89 in 10.0 mi Calm Calm - N/A   Mostly Cloudy
11:53 AM 73.9 °F - 57.9 °F 57% 29.87 in 10.0 mi WNW 9.2 mph - N/A   Mostly Cloudy
12:53 PM 75.0 °F - 57.0 °F 53% 29.85 in 10.0 mi WNW 6.9 mph - N/A   Mostly Cloudy
1:53 PM 77.0 °F - 57.0 °F 50% 29.83 in 10.0 mi WNW 8.1 mph - N/A   Mostly Cloudy
2:53 PM 80.1 °F 80.4 °F 57.0 °F 45% 29.81 in 10.0 mi NW 6.9 mph - N/A   Mostly Cloudy
3:53 PM 80.1 °F 80.6 °F 57.9 °F 47% 29.80 in 10.0 mi WNW 5.8 mph - N/A   Mostly Cloudy
4:53 PM 81.0 °F 81.1 °F 57.9 °F 45% 29.79 in 10.0 mi NW 8.1 mph - N/A   Mostly Cloudy
5:53 PM 79.0 °F - 57.0 °F 47% 29.80 in 10.0 mi WNW 8.1 mph - N/A   Mostly Cloudy
6:53 PM 78.1 °F - 59.0 °F 52% 29.80 in 10.0 mi WNW 8.1 mph - N/A   Mostly Cloudy
7:53 PM 75.0 °F - 62.1 °F 64% 29.80 in 10.0 mi NW 8.1 mph - N/A   Mostly Cloudy
8:53 PM 73.0 °F - 62.1 °F 68% 29.81 in 10.0 mi NW 12.7 mph - N/A   Mostly Cloudy
9:53 PM 71.1 °F - 62.1 °F 73% 29.83 in 10.0 mi North 3.5 mph - N/A   Overcast
10:53 PM 71.1 °F - 62.1 °F 73% 29.83 in 10.0 mi WNW 3.5 mph - N/A   Overcast
11:53 PM 70.0 °F - 62.1 °F 76% 29.84 in 10.0 mi West 5.8 mph - N/A   Overcast